Location: Coupvray
(48.8929°N, 2.7967°E)
Time: 03:18:24
(UTC+00:00)

SL-24 DEB - Pass Details

Date: 14 July 2020
Orbit: 667 x 698 km, 92.0° (Epoch: 06 August)

Event Time Altitude Azimuth Distance (km) Brightness Sun altitude
Rises 00:54:12 0° 4° (N) 3,065 9.2 -18.2°
Reaches altitude 10° 00:56:28 10° 5° (N) 2,149 8.1 -18.1°
Maximum altitude 01:01:13 87° 94° (E) 701 4.2 -17.9°
Enters shadow 01:03:20 34° 183° (S) 1,146 4.9 -17.8°
